DELTA 1 DEB, 25270

Orbit data source: Space-Track

DELTA 1 DEB, 25270 is space debris in LEO originally from a launch on Thu, 04 Jul 1968 UTC launched from the Air Force Western Test Range (AFWTR). Debris objects in space refer to the collection of defunct objects orbiting the Earth. Examples of debris include non-operational satellites, rocket bodies, and fragments generated from explosions, collisions, or faulty payload assembly.

Loading next visibility...
Identifier
25270, 1968-055E
Orbit
LEO
Last TLE update
2 days ago
Origin
Manufacturer
Unknown
Mission
Spacecraft
Bus & Motor
Unknown
Mass
Unknown
Launch date (UTC)
1968-07-04 (57 years ago)
Launch vehicle
Unknown
Launch site
Air Force Western Test Range (AFWTR)
Object type
Payload
Rocket body
Debris
Shape & HBR
Unknown
Radar Cross Section
Small (<0.1 m²)

Expand to show TLE details & history

TLE from 2 days ago
0 DELTA 1 DEB
1 25270U 68055E   25128.32365221  .00003413  00000-0  78702-2 0  9999
2 25270 120.6334  84.3155 2184381 128.2369 253.6025 10.02739947404262
Epoch: 2025-05-08T07:46Z
Definitive object data (Epoch: 2025-05-08T07:46:03.55Z)
Latitude
-0.00002°
Longitude
101.40493°
Altitude
3,623.312 km
Speed
5.988 km/s
True Right ascension
05h 37m 15s
True Declination
0° 00' 00"
Sunlit
Object was in daylight at TLE epoch
Visualization TLE readout
Latitude
-58.96413°
Longitude
-154.73308°
Altitude
3,880.151 km
Speed
5.825 km/s
Apparent Right ascension
14h 49m 47s
Apparent Declination
-57° 13' 54"
Sunlit
Object is in daylight
Visualization observer readout
Local Sidereal Time
05:19:50
Azimuth
138.264° SSE
Elevation
-60.325°
Doppler factor
1
Orbital elements
Apogee altitude
4,689.438 km
Perigee altitude
721.111 km
Semi-major axis
9,083.412 km
Eccentricity
0.2184381
Inclination
120.6334°
RAAN
84.3155°
Arg. of periapsis
128.2369°
True anomaly
231.84034°
Mean anomaly
253.6025°
Eccentric anomaly
242.50095°
Mean motion
2.50709 °/min
BSTAR
0.0078702
Orbital period
143.59 mins
Loading maneuver chart data...
Loading SW <> Apogee altitude chart data...
Loading historical data...
Loading historical data...
Loading historical data...
Loading historical data...
Loading historical data...
Loading historical data...
Loading historical data...

DELTA 1 DEB Visibility forecast

Observer location: undefined°, undefined°

Span
Click to sort rows by Start time (UTC) header in descending order
Start Az.
Max El. time (UTC)
Max El. Az.
Max El.
End time (UTC)
End Az.
19 mins2025-05-09 22:03:35.467Z191.031° SSW2025-05-09 22:14:35.467Z232.547° WSW21.365°2025-05-09 22:22:35.467Z279.059° WNW
7 mins2025-05-10 10:43:35.467Z68.541° E2025-05-10 10:46:35.467Z132.464° SE30.315°2025-05-10 10:50:35.467Z193.623° SSW
5 mins2025-05-10 13:02:35.467Z12.059° NNE2025-05-10 13:04:35.467Z340.27° N21.845°2025-05-10 13:07:35.467Z286.135° WNW
4 mins2025-05-10 15:19:35.467Z23.901° NE2025-05-10 15:21:35.467Z3.293° NNE12.919°2025-05-10 15:23:35.467Z340.368° N
13 mins2025-05-10 17:29:35.467Z88.113° E2025-05-10 17:37:35.467Z34.936° NE28.636°2025-05-10 17:42:35.467Z337.679° N
21 mins2025-05-10 19:41:35.467Z138.974° SSE2025-05-10 19:54:35.467Z194.215° SSW44.507°2025-05-10 20:02:35.467Z314.497° NW
|